Weather History for Del Bajio, Mexico

Change the Weather History Date:

Tuesday, December 3, 2013

  Actual Average Record
Temperature  
Mean Temperature 64 °F -  
Max Temperature 82 °F 75 °F 82 °F (2002)
Min Temperature 46 °F 44 °F 37 °F (2008)
Degree Days  
Heating Degree Days 1    
Growing Degree Days 14 (Base 50)    
Moisture  
Dew Point 40 °F    
Average Humidity 47    
Maximum Humidity 82    
Minimum Humidity 19    
Precipitation  
Precipitation 0.00 in - - ()
Sea Level Pressure  
Sea Level Pressure 30.01 in    
Wind  
Wind Speed 3 mph ()    
Max Wind Speed 8 mph    
Max Gust Speed -    
Visibility 8.9 miles    
Events      
Averages and records for this station are not official NWS values.
T = Trace of Precipitation, MM = Missing Value Source: Averaged Metar Reports

Daily Weather History Graph

Daily Weather History Graph

Search for Another Location

Airport:

Trip Planner

Search our weather history database for the weather conditions in past years. The results will help you decide how hot, cold, wet, or windy it might be!

Date:

Astronomy

Dec. 03, 2013 Rise Set
Actual Time 7:07 AM CST 6:03 PM CST
Civil Twilight 6:43 AM CST 6:27 PM CST
Nautical Twilight 6:16 AM CST 6:55 PM CST
Astronomical Twilight 5:49 AM CST 7:22 PM CST
Moon 7:42 AM CST (12/3) 7:06 PM CST (12/3)
Length of Visible Light 11h 43m
Length of Day
10h 55m
New Moon, 1% of the Moon is Illuminated
Dec 3
New Moon
Dec 9
First Quarter
Dec 17
Full
Dec 25
Last Quarter
Jan 1
New

Hourly Weather History & Observations

Time (CST) Temp. Windchill Dew Point Humidity Pressure Visibility Wind Dir Wind Speed Gust Speed Precip Events Conditions
12:49 AM 51.8 °F - 42.8 °F 71% 30.15 in 8.0 mi Calm Calm - N/A   Scattered Clouds
1:49 AM 50.0 °F - 42.8 °F 76% 30.15 in 8.0 mi NNE 6.9 mph - N/A   Scattered Clouds
4:54 AM 46.4 °F 43.5 °F 41.0 °F 81% 30.12 in 8.0 mi NE 5.8 mph - N/A   Partly Cloudy
5:47 AM 48.2 °F - 41.0 °F 76% 29.77 in 8.0 mi NNE 6.9 mph - N/A   Partly Cloudy
6:51 AM 46.4 °F - 41.0 °F 81% 30.15 in 8.0 mi Calm Calm - N/A   Scattered Clouds
7:40 AM 48.2 °F - 42.8 °F 82% 30.18 in 10.0 mi Calm Calm - N/A   Scattered Clouds
8:43 AM 59.0 °F - 44.6 °F 59% 29.90 in 9.0 mi Calm Calm - N/A   Scattered Clouds
10:40 AM 71.6 °F - 41.0 °F 33% 30.21 in 9.0 mi Calm Calm - N/A   Scattered Clouds
11:40 AM 73.4 °F - 41.0 °F 31% 29.85 in 10.0 mi South 4.6 mph - N/A   Scattered Clouds
12:55 PM 77.0 °F - 37.4 °F 24% 30.12 in 10.0 mi Calm Calm - N/A   Partly Cloudy
1:44 PM 80.6 °F - 37.4 °F 21% 30.09 in 10.0 mi West 6.9 mph - N/A   Partly Cloudy
2:48 PM 80.6 °F - 35.6 °F 20% 29.69 in 10.0 mi NW 3.5 mph - N/A   Partly Cloudy
3:41 PM 82.4 °F - 35.6 °F 19% 30.03 in 10.0 mi NW 5.8 mph - N/A   Partly Cloudy
4:47 PM 80.6 °F - 35.6 °F 20% 30.03 in 10.0 mi Calm Calm - N/A   Partly Cloudy
5:47 PM 77.0 °F - 35.6 °F 22% 29.71 in 10.0 mi West 8.1 mph - N/A   Partly Cloudy
6:53 PM 68.0 °F - 37.4 °F 33% 30.09 in 8.0 mi WSW 8.1 mph - N/A   Partly Cloudy
7:41 PM 64.4 °F - 39.2 °F 40% 30.09 in 8.0 mi WNW 4.6 mph - N/A   Partly Cloudy
8:44 PM 60.8 °F - 42.8 °F 52% 29.83 in 8.0 mi WNW 3.5 mph - N/A   Partly Cloudy
9:50 PM 60.8 °F - 39.2 °F 45% 30.14 in 8.0 mi Calm Calm - N/A   Clear
10:45 PM 60.8 °F - 39.2 °F 45% 30.15 in 8.0 mi West 5.8 mph - N/A   Clear
11:50 PM 55.4 °F - 41.0 °F 58% 29.83 in 8.0 mi Calm Calm - N/A   Clear